Location: Brookview Estates
(36.0476°N, 86.6931°W)
Time: 18:10:18
(UTC+00:00)

Hubble Space Telescope - Visible Passes

Search period start: 14 May 2021 00:00
Search period end: 24 May 2021 00:00
Orbit: 535 x 539 km, 28.5° (Epoch: 14 May)

Date Brightness Start Highest point End Pass type
(mag) Time Alt. Az. Time Alt. Az. Time Alt. Az.
19 May 3.2 10:05:32 10° S 10:06:47 11° SSE 10:08:01 10° SE visible
20 May 3.0 09:53:40 10° S 09:55:43 14° SSE 09:57:47 10° SE visible
21 May 2.8 09:42:08 10° SSW 09:44:41 16° SSE 09:47:14 10° SE visible
22 May 2.6 09:31:35 13° SSW 09:33:39 18° SSE 09:36:32 10° ESE visible
23 May 2.4 09:21:05 17° SSW 09:22:38 21° SSE 09:25:44 10° ESE visible
